Location: ??????????
(54.7560°N, 39.1389°E)
Time: 06:02:26
(UTC+00:00)

Cosmos 2333 - Pass Details

Date: 19 May 2025
Orbit: 830 x 863 km, 70.9° (Epoch: 15 June)

Event Time Altitude Azimuth Distance (km) Brightness Sun altitude
Rises 20:38:56 0° 326° (NW) 3,426 8.6 -14.8°
Reaches altitude 10° 20:41:25 10° 329° (NNW) 2,482 7.8 -14.8°
Maximum altitude 20:47:06 70° 53° (NE) 899 4.4 -14.9°
Enters shadow 20:51:46 15° 136° (SE) 2,099 5.8 -15.0°
